Location: Bay Ridge
(40.6340°N, 74.0146°W)
Time: 18:50:27
(UTC+00:00)

CZ-4C R/B - Pass Details

Date: 15 November 2019
Orbit: 650 x 1352 km, 63.4° (Epoch: 07 December)

Event Time Altitude Azimuth Distance (km) Brightness Sun altitude
Exits shadow 09:28:12 12° 348° (NNW) 2,426 4.4 -25.5°
Drops below altitude 10° 09:29:57 10° 4° (N) 2,676 4.8 -25.1°
Sets 09:34:32 0° 31° (NNE) 3,814 6.0 -24.3°
